Year,Month,Day,Hour,Minute,Value (Times are PST for temperature in C)
2014,08,09,00,00,17.70
2014,08,09,00,01,17.60
2014,08,09,00,02,17.50
2014,08,09,00,03,17.50
2014,08,09,00,04,17.40
2014,08,09,00,05,17.40
2014,08,09,00,06,17.30
2014,08,09,00,07,17.30
2014,08,09,00,08,17.20
2014,08,09,00,09,17.20
2014,08,09,00,10,17.20
2014,08,09,00,11,17.10
2014,08,09,00,12,17.10
2014,08,09,00,13,17.00
2014,08,09,00,14,17.00
2014,08,09,00,15,16.90
2014,08,09,00,16,16.90
2014,08,09,00,17,16.80
2014,08,09,00,18,16.80
2014,08,09,00,19,16.80
2014,08,09,00,20,16.70
2014,08,09,00,21,16.70
2014,08,09,00,22,16.60
2014,08,09,00,23,16.60
2014,08,09,00,24,16.50
2014,08,09,00,25,16.50
2014,08,09,00,26,16.40
2014,08,09,00,27,16.40
2014,08,09,00,28,16.30
2014,08,09,00,29,16.30
2014,08,09,00,30,16.30
2014,08,09,00,31,16.30
2014,08,09,00,32,16.20
2014,08,09,00,33,16.20
2014,08,09,00,34,16.20
2014,08,09,00,35,16.20
2014,08,09,00,36,16.20
2014,08,09,00,37,16.20
2014,08,09,00,38,16.10
2014,08,09,00,39,16.10
2014,08,09,00,40,16.10
2014,08,09,00,41,16.10
2014,08,09,00,42,16.10
2014,08,09,00,43,16.10
2014,08,09,00,44,16.10
2014,08,09,00,45,16.10
2014,08,09,00,46,16.10
2014,08,09,00,47,16.00
2014,08,09,00,48,16.00
2014,08,09,00,49,16.00
2014,08,09,00,50,16.00
2014,08,09,00,51,16.00
2014,08,09,00,52,16.00
2014,08,09,00,53,16.00
2014,08,09,00,54,16.00
2014,08,09,00,55,16.00
2014,08,09,00,56,16.00
2014,08,09,00,57,16.00
2014,08,09,00,58,16.00
2014,08,09,00,59,16.00
2014,08,09,01,00,16.00
2014,08,09,01,01,16.00
2014,08,09,01,02,16.00
2014,08,09,01,03,16.10
2014,08,09,01,04,16.10
2014,08,09,01,05,16.10
2014,08,09,01,06,16.00
2014,08,09,01,07,16.00
2014,08,09,01,08,16.00
2014,08,09,01,09,15.90
2014,08,09,01,10,15.90
2014,08,09,01,11,15.90
2014,08,09,01,12,15.90
2014,08,09,01,13,15.90
2014,08,09,01,14,15.90
2014,08,09,01,15,15.90
2014,08,09,01,16,15.90
2014,08,09,01,17,15.90
2014,08,09,01,18,15.90
2014,08,09,01,19,15.80
2014,08,09,01,20,15.80
2014,08,09,01,21,15.80
2014,08,09,01,22,15.80
2014,08,09,01,23,15.90
2014,08,09,01,24,15.90
2014,08,09,01,25,15.90
2014,08,09,01,26,16.00
2014,08,09,01,27,16.00
2014,08,09,01,28,16.00
2014,08,09,01,29,16.00
2014,08,09,01,30,16.00
2014,08,09,01,31,15.90
2014,08,09,01,32,15.90
2014,08,09,01,33,15.90
2014,08,09,01,34,15.80
2014,08,09,01,35,15.80
2014,08,09,01,36,15.80
2014,08,09,01,37,15.70
2014,08,09,01,38,15.70
2014,08,09,01,39,15.70
2014,08,09,01,40,15.70
2014,08,09,01,41,15.70
2014,08,09,01,42,15.70
2014,08,09,01,43,15.60
2014,08,09,01,44,15.60
2014,08,09,01,45,15.60
2014,08,09,01,46,15.60
2014,08,09,01,47,15.60
2014,08,09,01,48,15.60
2014,08,09,01,49,15.60
2014,08,09,01,50,15.60
2014,08,09,01,51,15.60
2014,08,09,01,52,15.60
2014,08,09,01,53,15.60
2014,08,09,01,54,15.60
2014,08,09,01,55,15.60
2014,08,09,01,56,15.60
2014,08,09,01,57,15.60
2014,08,09,01,58,15.60
2014,08,09,01,59,15.60
2014,08,09,02,00,15.60
2014,08,09,02,01,15.50
2014,08,09,02,02,15.50
2014,08,09,02,03,15.40
2014,08,09,02,04,15.40
2014,08,09,02,05,15.40
2014,08,09,02,06,15.40
2014,08,09,02,07,15.30
2014,08,09,02,08,15.30
2014,08,09,02,09,15.30
2014,08,09,02,10,15.20
2014,08,09,02,11,15.20
2014,08,09,02,12,15.10
2014,08,09,02,13,15.00
2014,08,09,02,14,15.00
2014,08,09,02,15,14.90
2014,08,09,02,16,14.90
2014,08,09,02,17,14.80
2014,08,09,02,18,14.80
2014,08,09,02,19,14.70
2014,08,09,02,20,14.70
2014,08,09,02,21,14.70
2014,08,09,02,22,14.70
2014,08,09,02,23,14.70
2014,08,09,02,24,14.70
2014,08,09,02,25,14.70
2014,08,09,02,26,14.70
2014,08,09,02,27,14.70
2014,08,09,02,28,14.70
2014,08,09,02,29,14.70
2014,08,09,02,30,14.70
2014,08,09,02,31,14.70
2014,08,09,02,32,14.70
2014,08,09,02,33,14.70
2014,08,09,02,34,14.80
2014,08,09,02,35,14.80
2014,08,09,02,36,14.80
2014,08,09,02,37,14.80
2014,08,09,02,38,14.80
2014,08,09,02,39,14.70
2014,08,09,02,40,14.70
2014,08,09,02,41,14.70
2014,08,09,02,42,14.70
2014,08,09,02,43,14.70
2014,08,09,02,44,14.60
2014,08,09,02,45,14.60
2014,08,09,02,46,14.60
2014,08,09,02,47,14.60
2014,08,09,02,48,14.60
2014,08,09,02,49,14.60
2014,08,09,02,50,14.70
2014,08,09,02,51,14.70
2014,08,09,02,52,14.70
2014,08,09,02,53,14.70
2014,08,09,02,54,14.70
2014,08,09,02,55,14.80
2014,08,09,02,56,14.80
2014,08,09,02,57,14.80
2014,08,09,02,58,14.80
2014,08,09,02,59,14.80
2014,08,09,03,00,14.80
2014,08,09,03,01,14.70
2014,08,09,03,02,14.70
2014,08,09,03,03,14.70
2014,08,09,03,04,14.70
2014,08,09,03,05,14.70
2014,08,09,03,06,14.60
2014,08,09,03,07,14.60
2014,08,09,03,08,14.60
2014,08,09,03,09,14.50
2014,08,09,03,10,14.50
2014,08,09,03,11,14.40
2014,08,09,03,12,14.40
2014,08,09,03,13,14.40
2014,08,09,03,14,14.40
2014,08,09,03,15,14.30
2014,08,09,03,16,14.30
2014,08,09,03,17,14.30
2014,08,09,03,18,14.30
2014,08,09,03,19,14.30
2014,08,09,03,20,14.30
2014,08,09,03,21,14.20
2014,08,09,03,22,14.20
2014,08,09,03,23,14.20
2014,08,09,03,24,14.20
2014,08,09,03,25,14.20
2014,08,09,03,26,14.20
2014,08,09,03,27,14.20
2014,08,09,03,28,14.10
2014,08,09,03,29,14.10
2014,08,09,03,30,14.10
2014,08,09,03,31,14.10
2014,08,09,03,32,14.10
2014,08,09,03,33,14.10
2014,08,09,03,34,14.00
2014,08,09,03,35,14.00
2014,08,09,03,36,14.00
2014,08,09,03,37,14.10
2014,08,09,03,38,14.10
2014,08,09,03,39,14.10
2014,08,09,03,40,14.20
2014,08,09,03,41,14.20
2014,08,09,03,42,14.20
2014,08,09,03,43,14.30
2014,08,09,03,44,14.30
2014,08,09,03,45,14.40
2014,08,09,03,46,14.40
2014,08,09,03,47,14.50
2014,08,09,03,48,14.50
2014,08,09,03,49,14.50
2014,08,09,03,50,14.60
2014,08,09,03,51,14.60
2014,08,09,03,52,14.60
2014,08,09,03,53,14.60
2014,08,09,03,54,14.60
2014,08,09,03,55,14.60
2014,08,09,03,56,14.60
2014,08,09,03,57,14.60
2014,08,09,03,58,14.60
2014,08,09,03,59,14.60
2014,08,09,04,00,14.60
2014,08,09,04,01,14.50
2014,08,09,04,02,14.50
2014,08,09,04,03,14.40
2014,08,09,04,04,14.40
2014,08,09,04,05,14.30
2014,08,09,04,06,14.30
2014,08,09,04,07,14.30
2014,08,09,04,08,14.20
2014,08,09,04,09,14.20
2014,08,09,04,10,14.20
2014,08,09,04,11,14.10
2014,08,09,04,12,14.10
2014,08,09,04,13,14.00
2014,08,09,04,14,14.00
2014,08,09,04,15,13.90
2014,08,09,04,16,13.90
2014,08,09,04,17,13.80
2014,08,09,04,18,13.80
2014,08,09,04,19,13.80
2014,08,09,04,20,13.70
2014,08,09,04,21,13.70
2014,08,09,04,22,13.70
2014,08,09,04,23,13.70
2014,08,09,04,24,13.70
2014,08,09,04,25,13.70
2014,08,09,04,26,13.60
2014,08,09,04,27,13.60
2014,08,09,04,28,13.60
2014,08,09,04,29,13.60
2014,08,09,04,30,13.60
2014,08,09,04,31,13.50
2014,08,09,04,32,13.50
2014,08,09,04,33,13.50
2014,08,09,04,34,13.50
2014,08,09,04,35,13.50
2014,08,09,04,36,13.40
2014,08,09,04,37,13.40
2014,08,09,04,38,13.40
2014,08,09,04,39,13.40
2014,08,09,04,40,13.40
2014,08,09,04,41,13.40
2014,08,09,04,42,13.40
2014,08,09,04,43,13.40
2014,08,09,04,44,13.40
2014,08,09,04,45,13.40
2014,08,09,04,46,13.40
2014,08,09,04,47,13.40
2014,08,09,04,48,13.50
2014,08,09,04,49,13.50
2014,08,09,04,50,13.50
2014,08,09,04,51,13.50
2014,08,09,04,52,13.50
2014,08,09,04,53,13.50
2014,08,09,04,54,13.40
2014,08,09,04,55,13.40
2014,08,09,04,56,13.40
2014,08,09,04,57,13.40
2014,08,09,04,58,13.40
2014,08,09,04,59,13.30
2014,08,09,05,00,13.30
2014,08,09,05,01,13.30
2014,08,09,05,02,13.30
2014,08,09,05,03,13.20
2014,08,09,05,04,13.20
2014,08,09,05,05,13.20
2014,08,09,05,06,13.20
2014,08,09,05,07,13.20
2014,08,09,05,08,13.10
2014,08,09,05,09,13.10
2014,08,09,05,10,13.10
2014,08,09,05,11,13.10
2014,08,09,05,12,13.10
2014,08,09,05,13,13.10
2014,08,09,05,14,13.10
2014,08,09,05,15,13.00
2014,08,09,05,16,13.00
2014,08,09,05,17,13.00
2014,08,09,05,18,13.00
2014,08,09,05,19,12.90
2014,08,09,05,20,12.90
2014,08,09,05,21,12.90
2014,08,09,05,22,12.90
2014,08,09,05,23,12.80
2014,08,09,05,24,12.80
2014,08,09,05,25,12.80
2014,08,09,05,26,12.80
2014,08,09,05,27,12.80
2014,08,09,05,28,12.80
2014,08,09,05,29,12.70
2014,08,09,05,30,12.70
2014,08,09,05,31,12.70
2014,08,09,05,32,12.70
2014,08,09,05,33,12.70
2014,08,09,05,34,12.70
2014,08,09,05,35,12.70
2014,08,09,05,36,12.80
2014,08,09,05,37,12.80
2014,08,09,05,38,12.80
2014,08,09,05,39,12.80
2014,08,09,05,40,12.80
2014,08,09,05,41,12.80
2014,08,09,05,42,12.80
2014,08,09,05,43,12.80
2014,08,09,05,44,12.80
2014,08,09,05,45,12.80
2014,08,09,05,46,12.80
2014,08,09,05,47,12.80
2014,08,09,05,48,12.80
2014,08,09,05,49,12.80
2014,08,09,05,50,12.80
2014,08,09,05,51,12.80
2014,08,09,05,52,12.70
2014,08,09,05,53,12.70
2014,08,09,05,54,12.70
2014,08,09,05,55,12.70
2014,08,09,05,56,12.70
2014,08,09,05,57,12.70
2014,08,09,05,58,12.60
2014,08,09,05,59,12.60
2014,08,09,06,00,12.60
2014,08,09,06,01,12.60
2014,08,09,06,02,12.60
2014,08,09,06,03,12.60
2014,08,09,06,04,12.60
2014,08,09,06,05,12.60
2014,08,09,06,06,12.60
2014,08,09,06,07,12.60
2014,08,09,06,08,12.50
2014,08,09,06,09,12.50
2014,08,09,06,10,12.50
2014,08,09,06,11,12.50
2014,08,09,06,12,12.50
2014,08,09,06,13,12.50
2014,08,09,06,14,12.50
2014,08,09,06,15,12.50
2014,08,09,06,16,12.50
2014,08,09,06,17,12.50
2014,08,09,06,18,12.50
2014,08,09,06,19,12.60
2014,08,09,06,20,12.60
2014,08,09,06,21,12.60
2014,08,09,06,22,12.60
2014,08,09,06,23,12.60
2014,08,09,06,24,12.60
2014,08,09,06,25,12.60
2014,08,09,06,26,12.60
2014,08,09,06,27,12.60
2014,08,09,06,28,12.60
2014,08,09,06,29,12.60
2014,08,09,06,30,12.60
2014,08,09,06,31,12.60
2014,08,09,06,32,12.60
2014,08,09,06,33,12.60
2014,08,09,06,34,12.60
2014,08,09,06,35,12.60
2014,08,09,06,36,12.60
2014,08,09,06,37,12.60
2014,08,09,06,38,12.60
2014,08,09,06,39,12.60
2014,08,09,06,40,12.70
2014,08,09,06,41,12.70
2014,08,09,06,42,12.70
2014,08,09,06,43,12.70
2014,08,09,06,44,12.80
2014,08,09,06,45,12.80
2014,08,09,06,46,12.80
2014,08,09,06,47,12.90
2014,08,09,06,48,12.90
2014,08,09,06,49,13.00
2014,08,09,06,50,13.00
2014,08,09,06,51,13.10
2014,08,09,06,52,13.10
2014,08,09,06,53,13.20
2014,08,09,06,54,13.20
2014,08,09,06,55,13.30
2014,08,09,06,56,13.30
2014,08,09,06,57,13.40
2014,08,09,06,58,13.50
2014,08,09,06,59,13.50
2014,08,09,07,00,13.60
2014,08,09,07,01,13.70
2014,08,09,07,02,13.80
2014,08,09,07,03,13.90
2014,08,09,07,04,14.00
2014,08,09,07,05,14.00
2014,08,09,07,06,14.10
2014,08,09,07,07,14.20
2014,08,09,07,08,14.30
2014,08,09,07,09,14.40
2014,08,09,07,10,14.50
2014,08,09,07,11,14.50
2014,08,09,07,12,14.60
2014,08,09,07,13,14.60
2014,08,09,07,14,14.70
2014,08,09,07,15,14.80
2014,08,09,07,16,14.80
2014,08,09,07,17,14.90
2014,08,09,07,18,14.90
2014,08,09,07,19,14.90
2014,08,09,07,20,15.00
2014,08,09,07,21,15.00
2014,08,09,07,22,15.10
2014,08,09,07,23,15.10
2014,08,09,07,24,15.20
2014,08,09,07,25,15.20
2014,08,09,07,26,15.20
2014,08,09,07,27,15.20
2014,08,09,07,28,15.30
2014,08,09,07,29,15.30
2014,08,09,07,30,15.30
2014,08,09,07,31,15.30
2014,08,09,07,32,15.30
2014,08,09,07,33,15.30
2014,08,09,07,34,15.40
2014,08,09,07,35,15.40
2014,08,09,07,36,15.40
2014,08,09,07,37,15.50
2014,08,09,07,38,15.50
2014,08,09,07,39,15.60
2014,08,09,07,40,15.60
2014,08,09,07,41,15.70
2014,08,09,07,42,15.70
2014,08,09,07,43,15.80
2014,08,09,07,44,15.80
2014,08,09,07,45,15.90
2014,08,09,07,46,16.00
2014,08,09,07,47,16.10
2014,08,09,07,48,16.10
2014,08,09,07,49,16.20
2014,08,09,07,50,16.30
2014,08,09,07,51,16.30
2014,08,09,07,52,16.40
2014,08,09,07,53,16.40
2014,08,09,07,54,16.50
2014,08,09,07,55,16.50
2014,08,09,07,56,16.60
2014,08,09,07,57,16.60
2014,08,09,07,58,16.60
2014,08,09,07,59,16.60
2014,08,09,08,00,16.70
2014,08,09,08,01,16.70
2014,08,09,08,02,16.70
2014,08,09,08,03,16.70
2014,08,09,08,04,16.70
2014,08,09,08,05,16.70
2014,08,09,08,06,16.70
2014,08,09,08,07,16.70
2014,08,09,08,08,16.70
2014,08,09,08,09,16.80
2014,08,09,08,10,16.80
2014,08,09,08,11,16.80
2014,08,09,08,12,16.90
2014,08,09,08,13,16.90
2014,08,09,08,14,17.00
2014,08,09,08,15,17.00
2014,08,09,08,16,17.10
2014,08,09,08,17,17.10
2014,08,09,08,18,17.10
2014,08,09,08,19,17.10
2014,08,09,08,20,17.10
2014,08,09,08,21,17.10
2014,08,09,08,22,17.10
2014,08,09,08,23,17.20
2014,08,09,08,24,17.20
2014,08,09,08,25,17.30
2014,08,09,08,26,17.30
2014,08,09,08,27,17.40
2014,08,09,08,28,17.40
2014,08,09,08,29,17.50
2014,08,09,08,30,17.50
2014,08,09,08,31,17.60
2014,08,09,08,32,17.60
2014,08,09,08,33,17.60
2014,08,09,08,34,17.60
2014,08,09,08,35,17.70
2014,08,09,08,36,17.70
2014,08,09,08,37,17.80
2014,08,09,08,38,17.90
2014,08,09,08,39,18.00
2014,08,09,08,40,18.00
2014,08,09,08,41,18.10
2014,08,09,08,42,18.10
2014,08,09,08,43,18.10
2014,08,09,08,44,18.10
2014,08,09,08,45,18.20
2014,08,09,08,46,18.20
2014,08,09,08,47,18.20
2014,08,09,08,48,18.20
2014,08,09,08,49,18.20
2014,08,09,08,50,18.20
2014,08,09,08,51,18.30
2014,08,09,08,52,18.30
2014,08,09,08,53,18.30
2014,08,09,08,54,18.40
2014,08,09,08,55,18.40
2014,08,09,08,56,18.40
2014,08,09,08,57,18.40
2014,08,09,08,58,18.40
2014,08,09,08,59,18.40
2014,08,09,09,00,18.40
2014,08,09,09,01,18.50
2014,08,09,09,02,18.50
2014,08,09,09,03,18.60
2014,08,09,09,04,18.60
2014,08,09,09,05,18.70
2014,08,09,09,06,18.80
2014,08,09,09,07,18.80
2014,08,09,09,08,18.90
2014,08,09,09,09,18.90
2014,08,09,09,10,19.00
2014,08,09,09,11,19.00
2014,08,09,09,12,19.10
2014,08,09,09,13,19.10
2014,08,09,09,14,19.20
2014,08,09,09,15,19.10
2014,08,09,09,16,19.10
2014,08,09,09,17,19.00
2014,08,09,09,18,18.90
2014,08,09,09,19,18.90
2014,08,09,09,20,18.80
2014,08,09,09,21,18.80
2014,08,09,09,22,18.80
2014,08,09,09,23,18.70
2014,08,09,09,24,18.70
2014,08,09,09,25,18.70
2014,08,09,09,26,18.70
2014,08,09,09,27,18.60
2014,08,09,09,28,18.60
2014,08,09,09,29,18.70
2014,08,09,09,30,18.70
2014,08,09,09,31,18.80
2014,08,09,09,32,18.90
2014,08,09,09,33,19.00
2014,08,09,09,34,19.00
2014,08,09,09,35,19.10
2014,08,09,09,36,19.20
2014,08,09,09,37,19.30
2014,08,09,09,38,19.30
2014,08,09,09,39,19.30
2014,08,09,09,40,19.30
2014,08,09,09,41,19.30
2014,08,09,09,42,19.40
2014,08,09,09,43,19.50
2014,08,09,09,44,19.50
2014,08,09,09,45,19.60
2014,08,09,09,46,19.70
2014,08,09,09,47,19.70
2014,08,09,09,48,19.70
2014,08,09,09,49,19.60
2014,08,09,09,50,19.70
2014,08,09,09,51,19.60
2014,08,09,09,52,19.60
2014,08,09,09,53,19.60
2014,08,09,09,54,19.70
2014,08,09,09,55,19.70
2014,08,09,09,56,19.70
2014,08,09,09,57,19.70
2014,08,09,09,58,19.70
2014,08,09,09,59,19.70
2014,08,09,10,00,19.70
2014,08,09,10,01,19.70
2014,08,09,10,02,19.70
2014,08,09,10,03,19.80
2014,08,09,10,04,19.80
2014,08,09,10,05,19.80
2014,08,09,10,06,19.70
2014,08,09,10,07,19.70
2014,08,09,10,08,19.80
2014,08,09,10,09,19.80
2014,08,09,10,10,19.90
2014,08,09,10,11,20.00
2014,08,09,10,12,20.00
2014,08,09,10,13,20.10
2014,08,09,10,14,20.00
2014,08,09,10,15,20.00
2014,08,09,10,16,19.90
2014,08,09,10,17,19.90
2014,08,09,10,18,19.80
2014,08,09,10,19,19.80
2014,08,09,10,20,19.80
2014,08,09,10,21,19.80
2014,08,09,10,22,19.80
2014,08,09,10,23,19.80
2014,08,09,10,24,19.80
2014,08,09,10,25,19.80
2014,08,09,10,26,19.70
2014,08,09,10,27,19.60
2014,08,09,10,28,19.60
2014,08,09,10,29,19.60
2014,08,09,10,30,19.60
2014,08,09,10,31,19.70
2014,08,09,10,32,19.70
2014,08,09,10,33,19.70
2014,08,09,10,34,19.70
2014,08,09,10,35,19.70
2014,08,09,10,36,19.70
2014,08,09,10,37,19.80
2014,08,09,10,38,19.80
2014,08,09,10,39,19.90
2014,08,09,10,40,19.90
2014,08,09,10,41,20.00
2014,08,09,10,42,20.10
2014,08,09,10,43,20.20
2014,08,09,10,44,20.20
2014,08,09,10,45,20.30
2014,08,09,10,46,20.40
2014,08,09,10,47,20.50
2014,08,09,10,48,20.60
2014,08,09,10,49,20.70
2014,08,09,10,50,20.80
2014,08,09,10,51,20.90
2014,08,09,10,52,20.90
2014,08,09,10,53,21.00
2014,08,09,10,54,21.10
2014,08,09,10,55,21.10
2014,08,09,10,56,21.10
2014,08,09,10,57,21.10
2014,08,09,10,58,21.20
2014,08,09,10,59,21.10
2014,08,09,11,00,21.20
2014,08,09,11,01,21.20
2014,08,09,11,02,21.30
2014,08,09,11,03,21.40
2014,08,09,11,04,21.40
2014,08,09,11,05,21.50
2014,08,09,11,06,21.50
2014,08,09,11,07,21.60
2014,08,09,11,08,21.60
2014,08,09,11,09,21.60
2014,08,09,11,10,21.50
2014,08,09,11,11,21.50
2014,08,09,11,12,21.40
2014,08,09,11,13,21.40
2014,08,09,11,14,21.40
2014,08,09,11,15,21.30
2014,08,09,11,16,21.20
2014,08,09,11,17,21.10
2014,08,09,11,18,21.10
2014,08,09,11,19,21.00
2014,08,09,11,20,20.90
2014,08,09,11,21,20.80
2014,08,09,11,22,20.80
2014,08,09,11,23,20.80
2014,08,09,11,24,20.70
2014,08,09,11,25,20.80
2014,08,09,11,26,20.80
2014,08,09,11,27,20.90
2014,08,09,11,28,20.90
2014,08,09,11,29,21.00
2014,08,09,11,30,21.00
2014,08,09,11,31,20.90
2014,08,09,11,32,20.90
2014,08,09,11,33,20.80
2014,08,09,11,34,20.70
2014,08,09,11,35,20.60
2014,08,09,11,36,20.50
2014,08,09,11,37,20.50
2014,08,09,11,38,20.40
2014,08,09,11,39,20.40
2014,08,09,11,40,20.40
2014,08,09,11,41,20.40
2014,08,09,11,42,20.40
2014,08,09,11,43,20.40
2014,08,09,11,44,20.40
2014,08,09,11,45,20.50
2014,08,09,11,46,20.50
2014,08,09,11,47,20.60
2014,08,09,11,48,20.60
2014,08,09,11,49,20.60
2014,08,09,11,50,20.60
2014,08,09,11,51,20.60
2014,08,09,11,52,20.60
2014,08,09,11,53,20.50
2014,08,09,11,54,20.50
2014,08,09,11,55,20.60
2014,08,09,11,56,20.60
2014,08,09,11,57,20.70
2014,08,09,11,58,20.80
2014,08,09,11,59,20.80
2014,08,09,12,00,20.90
2014,08,09,12,01,20.90
2014,08,09,12,02,20.90
2014,08,09,12,03,21.00
2014,08,09,12,04,21.00
2014,08,09,12,05,21.10
2014,08,09,12,06,21.10
2014,08,09,12,07,21.20
2014,08,09,12,08,21.20
2014,08,09,12,09,21.20
2014,08,09,12,10,21.20
2014,08,09,12,11,21.30
2014,08,09,12,12,21.30
2014,08,09,12,13,21.30
2014,08,09,12,14,21.30
2014,08,09,12,15,21.30
2014,08,09,12,16,21.30
2014,08,09,12,17,21.20
2014,08,09,12,18,21.20
2014,08,09,12,19,21.20
2014,08,09,12,20,21.30
2014,08,09,12,21,21.40
2014,08,09,12,22,21.50
2014,08,09,12,23,21.60
2014,08,09,12,24,21.70
2014,08,09,12,25,21.80
2014,08,09,12,26,21.80
2014,08,09,12,27,21.90
2014,08,09,12,28,21.90
2014,08,09,12,29,21.90
2014,08,09,12,30,22.00
2014,08,09,12,31,22.00
2014,08,09,12,32,22.10
2014,08,09,12,33,22.20
2014,08,09,12,34,22.30
2014,08,09,12,35,22.30
2014,08,09,12,36,22.30
2014,08,09,12,37,22.30
2014,08,09,12,38,22.20
2014,08,09,12,39,22.10
2014,08,09,12,40,22.10
2014,08,09,12,41,22.10
2014,08,09,12,42,22.10
2014,08,09,12,43,22.10
2014,08,09,12,44,22.10
2014,08,09,12,45,22.10
2014,08,09,12,46,22.10
2014,08,09,12,47,22.00
2014,08,09,12,48,21.90
2014,08,09,12,49,21.90
2014,08,09,12,50,21.90
2014,08,09,12,51,22.00
2014,08,09,12,52,22.00
2014,08,09,12,53,22.10
2014,08,09,12,54,22.10
2014,08,09,12,55,22.20
2014,08,09,12,56,22.30
2014,08,09,12,57,22.30
2014,08,09,12,58,22.30
2014,08,09,12,59,22.30
2014,08,09,13,00,22.40
2014,08,09,13,01,22.50
2014,08,09,13,02,22.60
2014,08,09,13,03,22.70
2014,08,09,13,04,22.70
2014,08,09,13,05,22.70
2014,08,09,13,06,22.70
2014,08,09,13,07,22.70
2014,08,09,13,08,22.80
2014,08,09,13,09,22.90
2014,08,09,13,10,22.90
2014,08,09,13,11,22.90
2014,08,09,13,12,22.90
2014,08,09,13,13,22.90
2014,08,09,13,14,22.90
2014,08,09,13,15,23.00
2014,08,09,13,16,23.00
2014,08,09,13,17,23.10
2014,08,09,13,18,23.10
2014,08,09,13,19,23.20
2014,08,09,13,20,23.20
2014,08,09,13,21,23.20
2014,08,09,13,22,23.20
2014,08,09,13,23,23.20
2014,08,09,13,24,23.10
2014,08,09,13,25,23.10
2014,08,09,13,26,23.20
2014,08,09,13,27,23.20
2014,08,09,13,28,23.30
2014,08,09,13,29,23.40
2014,08,09,13,30,23.50
2014,08,09,13,31,23.50
2014,08,09,13,32,23.60
2014,08,09,13,33,23.60
2014,08,09,13,34,23.60
2014,08,09,13,35,23.60
2014,08,09,13,36,23.60
2014,08,09,13,37,23.60
2014,08,09,13,38,23.60
2014,08,09,13,39,23.60
2014,08,09,13,40,23.60
2014,08,09,13,41,23.60
2014,08,09,13,42,23.60
2014,08,09,13,43,23.70
2014,08,09,13,44,23.70
2014,08,09,13,45,23.70
2014,08,09,13,46,23.80
2014,08,09,13,47,23.80
2014,08,09,13,48,23.80
2014,08,09,13,49,23.70
2014,08,09,13,50,23.70
2014,08,09,13,51,23.80
2014,08,09,13,52,23.80
2014,08,09,13,53,23.90
2014,08,09,13,54,24.00
2014,08,09,13,55,24.00
2014,08,09,13,56,24.10
2014,08,09,13,57,24.10
2014,08,09,13,58,24.20
2014,08,09,13,59,24.20
2014,08,09,14,00,24.20
2014,08,09,14,01,24.30
2014,08,09,14,02,24.30
2014,08,09,14,03,24.40
2014,08,09,14,04,24.40
2014,08,09,14,05,24.40
2014,08,09,14,06,24.40
2014,08,09,14,07,24.40
2014,08,09,14,08,24.50
2014,08,09,14,09,24.60
2014,08,09,14,10,24.60
2014,08,09,14,11,24.60
2014,08,09,14,12,24.50
2014,08,09,14,13,24.50
2014,08,09,14,14,24.50
2014,08,09,14,15,24.60
2014,08,09,14,16,24.70
2014,08,09,14,17,24.80
2014,08,09,14,18,24.80
2014,08,09,14,19,24.80
2014,08,09,14,20,24.90
2014,08,09,14,21,24.90
2014,08,09,14,22,24.90
2014,08,09,14,23,24.90
2014,08,09,14,24,24.90
2014,08,09,14,25,24.90
2014,08,09,14,26,24.90
2014,08,09,14,27,25.00
2014,08,09,14,28,25.00
2014,08,09,14,29,25.10
2014,08,09,14,30,25.10
2014,08,09,14,31,25.10
2014,08,09,14,32,25.20
2014,08,09,14,33,25.20
2014,08,09,14,34,25.30
2014,08,09,14,35,25.30
2014,08,09,14,36,25.30
2014,08,09,14,37,25.30
2014,08,09,14,38,25.40
2014,08,09,14,39,25.40
2014,08,09,14,40,25.40
2014,08,09,14,41,25.50
2014,08,09,14,42,25.60
2014,08,09,14,43,25.60
2014,08,09,14,44,25.50
2014,08,09,14,45,25.40
2014,08,09,14,46,25.40
2014,08,09,14,47,25.30
2014,08,09,14,48,25.30
2014,08,09,14,49,25.30
2014,08,09,14,50,25.20
2014,08,09,14,51,25.20
2014,08,09,14,52,25.20
2014,08,09,14,53,25.20
2014,08,09,14,54,25.30
2014,08,09,14,55,25.30
2014,08,09,14,56,25.30
2014,08,09,14,57,25.30
2014,08,09,14,58,25.30
2014,08,09,14,59,25.20
2014,08,09,15,00,25.20
2014,08,09,15,01,25.20
2014,08,09,15,02,25.10
2014,08,09,15,03,25.00
2014,08,09,15,04,25.00
2014,08,09,15,05,25.00
2014,08,09,15,06,25.00
2014,08,09,15,07,25.00
2014,08,09,15,08,25.10
2014,08,09,15,09,25.20
2014,08,09,15,10,25.30
2014,08,09,15,11,25.40
2014,08,09,15,12,25.40
2014,08,09,15,13,25.50
2014,08,09,15,14,25.60
2014,08,09,15,15,25.70
2014,08,09,15,16,25.70
2014,08,09,15,17,25.70
2014,08,09,15,18,25.70
2014,08,09,15,19,25.70
2014,08,09,15,20,25.70
2014,08,09,15,21,25.70
2014,08,09,15,22,25.80
2014,08,09,15,23,25.90
2014,08,09,15,24,25.90
2014,08,09,15,25,25.90
2014,08,09,15,26,26.00
2014,08,09,15,27,26.10
2014,08,09,15,28,26.10
2014,08,09,15,29,26.20
2014,08,09,15,30,26.20
2014,08,09,15,31,26.20
2014,08,09,15,32,26.20
2014,08,09,15,33,26.20
2014,08,09,15,34,26.20
2014,08,09,15,35,26.20
2014,08,09,15,36,26.20
2014,08,09,15,37,26.20
2014,08,09,15,38,26.30
2014,08,09,15,39,26.30
2014,08,09,15,40,26.30
2014,08,09,15,41,26.30
2014,08,09,15,42,26.30
2014,08,09,15,43,26.30
2014,08,09,15,44,26.30
2014,08,09,15,45,26.20
2014,08,09,15,46,26.20
2014,08,09,15,47,26.10
2014,08,09,15,48,26.10
2014,08,09,15,49,26.10
2014,08,09,15,50,26.10
2014,08,09,15,51,26.10
2014,08,09,15,52,26.10
2014,08,09,15,53,26.00
2014,08,09,15,54,26.00
2014,08,09,15,55,25.90
2014,08,09,15,56,25.90
2014,08,09,15,57,25.90
2014,08,09,15,58,26.00
2014,08,09,15,59,26.10
2014,08,09,16,00,26.10
2014,08,09,16,01,26.20
2014,08,09,16,02,26.20
2014,08,09,16,03,26.20
2014,08,09,16,04,26.20
2014,08,09,16,05,26.20
2014,08,09,16,06,26.20
2014,08,09,16,07,26.20
2014,08,09,16,08,26.20
2014,08,09,16,09,26.20
2014,08,09,16,10,26.10
2014,08,09,16,11,26.10
2014,08,09,16,12,26.10
2014,08,09,16,13,26.10
2014,08,09,16,14,26.10
2014,08,09,16,15,26.10
2014,08,09,16,16,26.10
2014,08,09,16,17,26.10
2014,08,09,16,18,26.10
2014,08,09,16,19,26.10
2014,08,09,16,20,26.10
2014,08,09,16,21,26.10
2014,08,09,16,22,26.10
2014,08,09,16,23,26.10
2014,08,09,16,24,26.20
2014,08,09,16,25,26.30
2014,08,09,16,26,26.30
2014,08,09,16,27,26.30
2014,08,09,16,28,26.30
2014,08,09,16,29,26.30
2014,08,09,16,30,26.20
2014,08,09,16,31,26.20
2014,08,09,16,32,26.20
2014,08,09,16,33,26.30
2014,08,09,16,34,26.30
2014,08,09,16,35,26.40
2014,08,09,16,36,26.40
2014,08,09,16,37,26.50
2014,08,09,16,38,26.60
2014,08,09,16,39,26.70
2014,08,09,16,40,26.70
2014,08,09,16,41,26.80
2014,08,09,16,42,26.90
2014,08,09,16,43,26.90
2014,08,09,16,44,27.00
2014,08,09,16,45,27.10
2014,08,09,16,46,27.10
2014,08,09,16,47,27.10
2014,08,09,16,48,27.10
2014,08,09,16,49,27.10
2014,08,09,16,50,27.10
2014,08,09,16,51,27.00
2014,08,09,16,52,26.90
2014,08,09,16,53,26.90
2014,08,09,16,54,26.90
2014,08,09,16,55,26.90
2014,08,09,16,56,26.90
2014,08,09,16,57,26.90
2014,08,09,16,58,26.90
2014,08,09,16,59,26.90
2014,08,09,17,00,26.90
2014,08,09,17,01,26.80
2014,08,09,17,02,26.80
2014,08,09,17,03,26.80
2014,08,09,17,04,26.80
2014,08,09,17,05,26.80
2014,08,09,17,06,26.70
2014,08,09,17,07,26.70
2014,08,09,17,08,26.80
2014,08,09,17,09,26.90
2014,08,09,17,10,27.00
2014,08,09,17,11,27.00
2014,08,09,17,12,27.10
2014,08,09,17,13,27.10
2014,08,09,17,14,27.10
2014,08,09,17,15,27.10
2014,08,09,17,16,27.10
2014,08,09,17,17,27.30
2014,08,09,17,18,27.30
2014,08,09,17,19,27.40